Saipan, MP

10:28 AM ChST on August 28, 2016 (GMT +1000)
Saipan International

Weather History for PGSN - February, 2013

Change the Weather History Date:

Sunday, February 17, 2013

  Actual Average Record
Temperature  
Mean Temperature 76 °F -  
Max Temperature 81 °F 82 °F 100 °F (1999)
Min Temperature 72 °F 74 °F 72 °F (2003)
Cooling Degree Days 12    
Growing Degree Days 26 (Base 50)    
Moisture  
Dew Point 71 °F    
Average Humidity 84    
Maximum Humidity 97    
Minimum Humidity 71    
Precipitation  
Precipitation 0.30 in - - ()
Sea Level Pressure  
Sea Level Pressure 29.91 in    
Wind  
Wind Speed 17 mph (NE)    
Max Wind Speed 24 mph    
Max Gust Speed 33 mph    
Visibility 9 miles    
Events Rain    
Averages and records for this station are not official NWS values.
T = Trace of Precipitation, MM = Missing Value Source: NWS Daily Summary

Daily Weather History Graph

Daily Weather History Graph

Search for Another Location

Airport or City:

Trip Planner

Search our weather history database for the weather conditions in past years. The results will help you decide how hot, cold, wet, or windy it might be!

Date:

Astronomy

Feb. 17, 2013 Rise Set
Actual Time 6:40 AM ChST 6:21 PM ChST
Civil Twilight 6:18 AM ChST 6:43 PM ChST
Nautical Twilight 5:53 AM ChST 7:08 PM ChST
Astronomical Twilight 5:28 AM ChST 7:33 PM ChST
Moon 11:17 AM ChST (2/17) No Moon Set
Length of Visible Light 12h 24m
Length of Day
11h 40m
Waxing Crescent, 43% of the Moon is Illuminated
Feb 17
Waxing Crescent
Feb 18
First Quarter
Feb 26
Full
Mar 5
Last Quarter
Mar 12
New

Hourly Weather History & Observations

Time (ChST) Temp. Heat Index Dew Point Humidity Pressure Visibility Wind Dir Wind Speed Gust Speed Precip Events Conditions
12:54 AM 75.9 °F - 71.1 °F 85% 29.92 in 10.0 mi NE 16.1 mph - N/A   Partly Cloudy
1:54 AM 75.9 °F - 70.0 °F 82% 29.91 in 10.0 mi NE 16.1 mph - N/A   Scattered Clouds
2:54 AM 75.9 °F - 71.1 °F 85% 29.90 in 10.0 mi NE 13.8 mph 19.6 mph 0.00 in   Mostly Cloudy
3:54 AM 75.9 °F - 71.1 °F 85% 29.89 in 10.0 mi NE 13.8 mph - N/A   Partly Cloudy
4:54 AM 75.9 °F - 71.1 °F 85% 29.89 in 10.0 mi NNE 17.3 mph 23.0 mph 0.00 in   Mostly Cloudy
5:54 AM 75.9 °F - 70.0 °F 82% 29.91 in 10.0 mi NNE 12.7 mph - N/A   Mostly Cloudy
6:54 AM 75.9 °F - 70.0 °F 82% 29.93 in 10.0 mi NE 16.1 mph 20.7 mph N/A   Overcast
7:54 AM 75.9 °F - 72.0 °F 87% 29.95 in 10.0 mi NNE 11.5 mph - 0.04 in   Mostly Cloudy
8:54 AM 75.0 °F - 71.1 °F 87% 29.96 in 5.0 mi NNE 15.0 mph 20.7 mph 0.01 in Rain Light Rain
9:54 AM 72.0 °F - 71.1 °F 97% 29.98 in 4.0 mi NNE 11.5 mph - 0.13 in Rain Rain
10:54 AM 78.1 °F - 73.0 °F 84% 29.95 in 5.0 mi NNE 17.3 mph - 0.07 in Rain Light Rain
11:54 AM 80.1 °F 83.6 °F 71.1 °F 74% 29.93 in 10.0 mi NNE 20.7 mph 29.9 mph 0.00 in   Scattered Clouds
12:54 PM 81.0 °F 84.9 °F 71.1 °F 72% 29.91 in 10.0 mi NNE 23.0 mph 29.9 mph N/A   Mostly Cloudy
1:54 PM 75.9 °F - 73.0 °F 91% 29.90 in 6.0 mi NE 19.6 mph 26.5 mph N/A   Overcast
2:54 PM 80.1 °F 83.2 °F 70.0 °F 71% 29.88 in 10.0 mi NE 21.9 mph 31.1 mph N/A   Scattered Clouds
3:35 PM 77.0 °F - 69.8 °F 78% 29.81 in 10.0 mi NNE 19.6 mph 29.9 mph N/A   Scattered Clouds
3:54 PM 79.0 °F - 69.1 °F 72% 29.87 in 10.0 mi NNE 17.3 mph 32.2 mph N/A   Mostly Cloudy
4:54 PM 77.0 °F - 71.1 °F 82% 29.88 in 10.0 mi NE 17.3 mph 23.0 mph 0.00 in   Scattered Clouds
5:54 PM 78.1 °F - 69.1 °F 74% 29.90 in 10.0 mi NE 20.7 mph 28.8 mph N/A   Scattered Clouds
6:54 PM 73.9 °F - 71.1 °F 91% 29.91 in 6.0 mi NNE 17.3 mph 32.2 mph 0.03 in Rain Light Rain
7:54 PM 73.9 °F - 71.1 °F 91% 29.92 in 10.0 mi NE 16.1 mph 24.2 mph 0.01 in Rain Light Rain
8:54 PM 75.9 °F - 71.1 °F 85% 29.94 in 10.0 mi NE 18.4 mph - 0.00 in Rain Light Rain
9:02 PM 75.2 °F - 71.6 °F 89% 29.88 in 10.0 mi NE 24.2 mph 32.2 mph 0.00 in Rain Light Rain
9:27 PM 75.2 °F - 69.8 °F 83% 29.88 in 10.0 mi NE 19.6 mph 33.4 mph 0.00 in Rain Light Rain
9:54 PM 75.9 °F - 70.0 °F 82% 29.94 in 10.0 mi NE 18.4 mph 28.8 mph 0.00 in Rain Light Rain
10:54 PM 75.0 °F - 72.0 °F 90% 29.95 in 10.0 mi NE 17.3 mph 24.2 mph 0.01 in Rain Light Rain
11:40 PM 75.2 °F - 71.6 °F 89% 29.89 in 10.0 mi NNE 20.7 mph 28.8 mph 0.00 in Rain Light Rain
11:49 PM 75.2 °F - 69.8 °F 83% 29.89 in 10.0 mi NE 20.7 mph 32.2 mph 0.00 in Rain Light Rain
11:54 PM 75.0 °F - 70.0 °F 84% 29.95 in 10.0 mi NE 19.6 mph 32.2 mph 0.00 in Rain Light Rain